Location: Mount Cross
(36.6390°N, 79.4878°W)
Time: 13:51:10
(UTC+00:00)

Tiros 1 - Pass Details

Date: 06 April 2023
Orbit: 627 x 661 km, 48.4° (Epoch: 02 June)

Event Time Altitude Azimuth Distance (km) Brightness Sun altitude
Exits shadow 10:02:38 - 307° (NW) 2,884 10.1 -11.5°
Reaches altitude 10° 10:05:05 10° 320° (NW) 2,075 9.5 -11.0°
Maximum altitude 10:08:58 24° 14° (NNE) 1,366 9.2 -10.2°
Drops below altitude 10° 10:12:52 10° 68° (ENE) 2,075 11.4 -9.5°
Sets 10:15:36 0° 83° (E) 2,984 12.8 -9.0°
